Flag for Germany Weather past 2 weeks in Bad Oeynhausen, North Rhine-Westphalia, Germany

Now
36 °F

Passing clouds.


Feels Like: 26 °F
Forecast: 36 / 43 °F
Wind: 16 mph from Southwest

Location: Bueckeburg

Current Time: Mar 3, 2015 at 6:25:50 AM

Latest Report: Mar 3, 2015 at 5:20 AM


Visibility: N/A

Pressure: 29.95 "Hg

Humidity: 81%

Dew point: 30 °F

Location of Bad OeynhausenLocation

Historic Weather in Bad Oeynhausen — Graph

°F

Bad Oeynhausen temperature yesterday

Maximum temperature yesterday: 46 °F (at 2:20 PM)
Minimum temperature yesterday: 36 °F (at 8:20 PM)
Average temperature yesterday: 41 °F

Past Weeks' High & Low Weather Summary

 TemperatureHumidityPressure
High50 °F (Mar 1, 1:20 PM)100% (Feb 16, 6:20 AM)30.74 "Hg (Feb 16, 6:20 AM)
Low27 °F (Feb 16, 7:20 AM)46% (Feb 28, 3:20 PM)29.30 "Hg (Feb 21, 6:20 AM)
Average39 °F79%29.91 "Hg
* Reported Feb 16 4:20 AM — Mar 3 4:20 AM, Bad Oeynhausen, Weather by CustomWeather, © 2015

Note: Actual official high and low records may vary slightly from our data, if they occured in-between our weather recording intervals... More about our weather records

Advertising

Bad Oeynhausen weather history for previous 24 hours

 ConditionsComfort  
Time TempWeatherWind HumidityBarometerVisibility
4:20 AM
Tue, Mar 3
36 °FPassing clouds.17 mph75%29.95 "HgN/A
3:20 AM36 °FPassing clouds.17 mph81%29.92 "HgN/A
2:20 AM36 °FPassing clouds.16 mph81%29.89 "HgN/A
1:20 AM37 °FPassing clouds.16 mph81%29.89 "HgN/A
12:20 AM36 °FPassing clouds.15 mph87%29.86 "HgN/A
11:20 PM
Mon, Mar 2
36 °FPartly cloudy.18 mph87%29.83 "HgN/A
10:20 PM36 °FPartly cloudy.20 mph87%29.80 "HgN/A
9:20 PM37 °FSprinkles. Partly cloudy.14 mph87%29.77 "Hg4 mi
8:20 PM36 °FPartly cloudy.12 mph93%29.74 "HgN/A
7:20 PM37 °FPassing clouds.12 mph81%29.71 "HgN/A
6:49 PM37 °FSprinkles. Partly cloudy.22 mph87%29.71 "HgN/A
6:20 PM41 °FSprinkles. Partly cloudy.24 mph70%29.65 "Hg6 mi
5:20 PM41 °FScattered showers. Partly sunny.5 mph81%29.65 "HgN/A
4:20 PM41 °FScattered showers. Partly sunny.8 mph81%29.62 "HgN/A
3:55 PM39 °FBroken clouds.14 mph87%29.62 "HgN/A
3:20 PM46 °FSprinkles. Partly sunny.13 mph53%29.59 "HgN/A
2:20 PM46 °FScattered showers. Partly sunny.18 mph53%29.59 "HgN/A
1:20 PM45 °FPartly sunny.16 mph57%29.59 "HgN/A
12:20 PM45 °FPartly sunny.18 mph57%29.59 "HgN/A
11:20 AM43 °FPartly sunny.22 mph61%29.56 "HgN/A
10:20 AM43 °FPartly sunny.18 mph66%29.53 "HgN/A
9:20 AM39 °FScattered clouds.18 mph75%29.53 "HgN/A
8:20 AM39 °FBroken clouds.18 mph75%29.50 "HgN/A
7:20 AM39 °FScattered clouds.20 mph70%29.47 "HgN/A
6:20 AM41 °FPassing clouds.17 mph70%29.45 "HgN/A
Weather by CustomWeather, © 2015

See weather overviewHow to use our weather pages